Weather History for Avoca, PA

Change the Weather History Date:

Tuesday, November 27, 2012

  Actual Average Record
Temperature  
Mean Temperature 32 °F 37 °F  
Max Temperature 34 °F 45 °F 64 °F (1988)
Min Temperature 29 °F 30 °F 8 °F (1932)
Degree Days  
Heating Degree Days 33 28  
Month to date heating degree days 672 624  
Since 1 July heating degree days 1130 1227  
Cooling Degree Days 0 0  
Month to date cooling degree days 0 0  
Year to date cooling degree days 864 580  
Moisture  
Dew Point 29 °F    
Average Humidity 80    
Maximum Humidity 100    
Minimum Humidity 59    
Precipitation  
Precipitation 0.26 in 0.10 in 1.26 in (1921)
Month to date precipitation 1.10 2.81  
Year to date precipitation 34.18 35.25  
Sea Level Pressure  
Sea Level Pressure 30.23 in    
Wind  
Wind Speed 1 mph (North)    
Max Wind Speed 7 mph    
Max Gust Speed 10 mph    
Visibility 3 miles    
Events Fog , Snow    
T = Trace of Precipitation, MM = Missing Value Source: NWS Daily Summary

Daily Weather History Graph

Daily Weather History Graph

Search for Another Location

Airport:

Trip Planner

Search our weather history database for the weather conditions in past years. The results will help you decide how hot, cold, wet, or windy it might be!

Date:

Astronomy

Nov. 27, 2012 Rise Set
Actual Time 7:05 AM EST 4:35 PM EST
Civil Twilight 6:35 AM EST 5:06 PM EST
Nautical Twilight 6:00 AM EST 5:40 PM EST
Astronomical Twilight 5:27 AM EST 6:13 PM EST
Moon 4:05 PM EST 6:08 AM EST
Length of Visible Light 10h 31m
Length of Day
9h 29m
Waxing Gibbous, 99% of the Moon is Illuminated
Nov 27
Waxing Gibbous
Nov 28
Full
Dec 6
Last Quarter
Dec 13
New
Dec 20
First Quarter

Hourly Weather History & Observations

Time (EST) Temp. Windchill Dew Point Humidity Pressure Visibility Wind Dir Wind Speed Gust Speed Precip Events Conditions
12:54 AM 30.9 °F - 21.9 °F 69% 30.23 in 10.0 mi Calm Calm - N/A   Overcast
1:54 AM 33.1 °F - 21.0 °F 61% 30.24 in 10.0 mi Calm Calm - N/A   Overcast
2:54 AM 32.0 °F - 23.0 °F 69% 30.24 in 10.0 mi Calm Calm - N/A   Overcast
3:54 AM 32.0 °F - 24.1 °F 73% 30.25 in 10.0 mi Calm Calm - N/A   Overcast
4:22 AM 30.2 °F - 24.8 °F 80% 30.22 in 4.0 mi Calm Calm - 0.00 in Snow Light Snow
4:32 AM 30.2 °F - 24.8 °F 80% 30.22 in 2.0 mi Calm Calm - 0.00 in Snow Light Snow
4:40 AM 30.2 °F - 26.6 °F 86% 30.23 in 1.8 mi Calm Calm - 0.00 in Snow Light Snow
4:54 AM 30.0 °F - 26.1 °F 85% 30.25 in 1.8 mi Calm Calm - 0.00 in Snow Light Snow
5:03 AM 30.2 °F - 26.6 °F 86% 30.23 in 1.2 mi Calm Calm - 0.01 in Snow Light Snow
5:40 AM 28.4 °F - 26.6 °F 93% 30.22 in 1.5 mi Calm Calm - 0.02 in Snow Light Snow
5:54 AM 28.9 °F - 27.0 °F 92% 30.25 in 1.2 mi Calm Calm - 0.03 in Snow Light Snow
6:06 AM 30.2 °F - 28.4 °F 93% 30.22 in 1.2 mi Calm Calm - 0.00 in Snow Light Snow
6:54 AM 30.0 °F - 28.0 °F 92% 30.25 in 1.0 mi Calm Calm - 0.03 in Snow Light Snow
7:07 AM 30.2 °F - 28.4 °F 93% 30.22 in 1.2 mi Calm Calm - 0.01 in Snow Light Snow
7:42 AM 30.2 °F 25.4 °F 28.4 °F 93% 30.23 in 0.5 mi NE 4.6 mph - 0.02 in Fog , Snow Snow
7:54 AM 30.0 °F 26.5 °F 28.9 °F 96% 30.26 in 0.5 mi NE 3.5 mph - 0.03 in Fog , Snow Snow
8:51 AM 30.2 °F 26.7 °F 30.2 °F 100% 30.23 in 0.5 mi NE 3.5 mph - 0.02 in Fog , Snow Snow
8:54 AM 30.9 °F 27.5 °F 30.0 °F 96% 30.25 in 0.5 mi NE 3.5 mph - 0.02 in Fog , Snow Snow
9:44 AM 32.0 °F - 30.2 °F 93% 30.24 in 0.2 mi Calm Calm - 0.04 in Fog , Snow Snow
9:54 AM 32.0 °F - 30.0 °F 92% 30.27 in 0.2 mi Calm Calm - 0.04 in Fog , Snow Snow
10:07 AM 32.0 °F - 30.2 °F 93% 30.24 in 0.2 mi Calm Calm - 0.01 in Fog , Snow Snow
10:54 AM 33.1 °F - 30.9 °F 92% 30.27 in 0.2 mi Calm Calm - 0.04 in Fog , Snow Snow
11:54 AM 33.1 °F - 30.9 °F 92% 30.25 in 0.2 mi Calm Calm - 0.02 in Fog , Snow Snow
12:54 PM 34.0 °F - 30.9 °F 89% 30.24 in 0.2 mi Calm Calm - 0.03 in Snow Light Snow
1:02 PM 33.8 °F - 30.2 °F 87% 30.22 in 0.8 mi Calm Calm - 0.00 in Snow Light Snow
1:45 PM 33.8 °F - 32.0 °F 93% 30.20 in 0.2 mi Calm Calm - 0.02 in Fog , Snow Snow
1:54 PM 33.1 °F - 32.0 °F 96% 30.23 in 0.5 mi Calm Calm - 0.02 in Fog , Snow Light Snow
2:29 PM 33.8 °F - 32.0 °F 93% 30.19 in 1.0 mi Calm Calm - 0.00 in Snow Light Snow
2:54 PM 34.0 °F - 32.0 °F 92% 30.22 in 1.8 mi Calm Calm - 0.00 in   Overcast
3:09 PM 33.8 °F 30.8 °F 32.0 °F 93% 30.20 in 2.0 mi NNW 3.5 mph - N/A   Overcast
3:18 PM 33.8 °F 30.8 °F 32.0 °F 93% 30.20 in 2.5 mi NNW 3.5 mph - N/A   Overcast
3:29 PM 33.8 °F - 32.0 °F 93% 30.20 in 3.0 mi Calm Calm - N/A   Overcast
3:38 PM 33.8 °F - 32.0 °F 93% 30.20 in 4.0 mi Calm Calm - N/A   Overcast
3:54 PM 34.0 °F - 32.0 °F 92% 30.22 in 4.0 mi Calm Calm - N/A   Overcast
4:44 PM 33.8 °F - 32.0 °F 93% 30.20 in 3.0 mi Calm Calm - N/A   Overcast
4:54 PM 34.0 °F 31.0 °F 32.0 °F 92% 30.22 in 4.0 mi WNW 3.5 mph - N/A   Overcast
5:54 PM 34.0 °F 31.0 °F 30.9 °F 89% 30.24 in 7.0 mi NNW 3.5 mph - N/A   Overcast
7:07 PM 33.8 °F - 32.0 °F 93% 30.21 in 5.0 mi Calm Calm - N/A   Overcast
7:54 PM 33.1 °F - 30.9 °F 92% 30.25 in 6.0 mi Calm Calm - N/A   Overcast
8:54 PM 33.1 °F - 30.9 °F 92% 30.24 in 5.0 mi Calm Calm - N/A   Overcast
9:54 PM 33.1 °F - 30.0 °F 89% 30.25 in 7.0 mi Calm Calm - N/A   Overcast
10:54 PM 33.1 °F 27.7 °F 27.0 °F 78% 30.26 in 9.0 mi WNW 5.8 mph - N/A   Overcast
11:54 PM 30.0 °F - 28.0 °F 92% 30.24 in 5.0 mi Calm Calm - N/A   Clear